FW8282 Weather Reports


Display with metric or nautical units.
time (UTC)temp
F
wind
direction
speed
MPH
gust
MPH
rain 1hr
in
rain 24hr
in
rain mn
in
humidity
%
barometer
mb
20260506032114 74 155 0.0 0.0 0.00 0.00 0.00 73 1015.2
20260506031611 74 127 0.0 0.0 0.00 0.00 0.00 72 1015.2
20260506031108 75 158 0.0 0.0 0.00 0.00 0.00 71 1015.3
20260506030607 75 165 0.0 0.0 0.00 0.00 0.00 71 1015.0
20260506030103 75 103 0.0 0.0 0.00 0.00 0.00 71 1015.2
20260506025600 75 153 0.0 0.0 0.00 0.00 0.00 71 1015.1
20260506025056 76 142 0.0 0.0 0.00 0.00 0.00 70 1015.2
20260506024554 76 137 0.0 0.0 0.00 0.00 0.00 70 1015.2
20260506024050 76 155 0.0 0.0 0.00 0.00 0.00 71 1014.8
20260506023546 75 151 0.0 0.0 0.00 0.00 0.00 72 1015.1
20260506023044 75 145 0.0 0.0 0.00 0.00 0.00 73 1015.0
20260506022541 75 150 0.0 0.0 0.00 0.00 0.00 73 1014.9
20260506022038 75 147 0.0 0.0 0.00 0.00 0.00 74 1015.1
20260506021536 75 159 0.0 0.0 0.00 0.00 0.00 74 1014.7
20260506021033 74 151 0.0 0.0 0.00 0.00 0.00 76 1014.7
20260506020530 73 148 0.0 0.0 0.00 0.00 0.00 80 1014.8
20260506020027 73 143 0.0 0.0 0.00 0.00 0.00 83 1014.8
20260506015525 73 140 0.0 0.0 0.00 0.00 0.00 86 1015.1
20260506015022 73 152 0.0 0.0 0.00 0.00 0.00 86 1014.4
20260506014519 73 155 0.0 0.0 0.00 0.00 0.00 86 1014.6
20260506014015 73 156 0.0 0.0 0.00 0.00 0.00 86 1014.5
20260506013513 73 151 0.0 0.0 0.00 0.00 0.00 85 1014.5
20260506013010 73 126 0.0 0.0 0.00 0.00 0.00 83 1014.2
20260506012506 73 148 0.0 0.0 0.00 0.00 0.00 82 1014.3
20260506012003 74 138 0.0 0.0 0.00 0.00 0.00 81 1014.5
20260506011500 75 142 0.0 0.0 0.00 0.00 0.00 80 1014.4
20260506010956 74 146 0.0 0.0 0.00 0.00 0.00 79 1014.3
20260506010456 75 148 0.0 0.0 0.00 0.00 0.00 79 1014.1
20260506005951 75 146 0.0 0.0 0.00 0.00 0.00 78 1014.1
20260506005449 76 146 0.0 0.0 0.00 0.00 0.00 78 1014.1
20260506004944 76 132 0.0 0.0 0.00 0.00 0.00 77 1013.9
20260506004442 77 156 0.0 0.0 0.00 0.00 0.00 77 1013.8
20260506003938 77 217 0.0 0.0 0.00 0.00 0.00 77 1013.6
20260506003435 77 195 0.0 0.0 0.00 0.00 0.00 76 1013.8
20260506002931 78 170 0.0 0.0 0.00 0.00 0.00 76 1013.8
20260506002427 78 349 0.0 0.0 0.00 0.00 0.00 75 1013.5
20260506001923 78 211 0.0 0.0 0.00 0.00 0.00 74 1013.8
20260506001420 78 243 0.0 0.0 0.00 0.00 0.00 74 1013.4
20260506000918 78 317 0.0 0.0 0.00 0.00 0.00 74 1013.3
20260506000416 79 349 0.0 0.0 0.00 0.00 0.00 73 1013.3
20260505235912 79 237 0.0 0.0 0.00 0.00 0.00 72 1013.2
20260505235410 79 279 0.0 0.0 0.00 0.00 0.00 71 1013.3
20260505234906 80 252 2.0 6.0 0.00 0.00 0.00 70 1013.1
20260505234404 80 247 0.0 0.0 0.00 0.00 0.00 69 1013.3
20260505233900 80 241 0.0 0.0 0.00 0.00 0.00 69 1013.1
20260505233358 80 304 0.0 0.0 0.00 0.00 0.00 69 1013.1
20260505232855 81 291 4.0 6.0 0.00 0.00 0.00 68 1013.0
20260505232353 81 307 0.0 0.0 0.00 0.00 0.00 68 1012.9
20260505231850 81 226 0.0 0.0 0.00 0.00 0.00 67 1013.3
20260505231347 82 303 3.0 5.0 0.00 0.00 0.00 66 1013.3
20260505230845 82 243 0.0 0.0 0.00 0.00 0.00 66 1012.9
20260505230342 82 261 0.0 0.0 0.00 0.00 0.00 65 1013.2
20260505225839 82 259 0.0 1.0 0.00 0.00 0.00 63 1013.1
20260505225336 83 349 0.0 0.0 0.00 0.00 0.00 63 1013.2
20260505224831 83 272 3.0 5.0 0.00 0.00 0.00 62 1013.2
20260505224329 84 283 0.0 0.0 0.00 0.00 0.00 62 1013.2
20260505223826 84 30 3.0 7.0 0.00 0.00 0.00 61 1013.2
20260505223323 84 238 1.0 3.0 0.00 0.00 0.00 61 1013.2
20260505222819 85 9 0.0 0.0 0.00 0.00 0.00 61 1013.2
20260505222315 86 264 0.0 0.0 0.00 0.00 0.00 59 1013.1
20260505221812 86 11 0.0 0.0 0.00 0.00 0.00 58 1013.0
20260505221309 87 257 4.0 6.0 0.00 0.00 0.00 51 1013.2
20260505220806 88 342 3.0 5.0 0.00 0.00 0.00 46 1012.7
20260505220303 87 272 0.0 0.0 0.00 0.00 0.00 47 1013.1
20260505215801 88 283 0.0 0.0 0.00 0.00 0.00 45 1013.0
20260505215259 89 264 0.0 0.0 0.00 0.00 0.00 43 1012.9
20260505214756 90 272 0.0 0.0 0.00 0.00 0.00 45 1012.9
20260505214253 90 190 0.0 0.0 0.00 0.00 0.00 43 1012.9
20260505213751 89 190 0.0 0.0 0.00 0.00 0.00 47 1012.9
20260505213248 88 168 0.0 0.0 0.00 0.00 0.00 44 1013.0
20260505212743 88 209 0.0 0.0 0.00 0.00 0.00 44 1012.8
20260505212241 88 350 0.0 0.0 0.00 0.00 0.00 45 1013.1
20260505211738 88 253 1.0 3.0 0.00 0.00 0.00 46 1012.9
20260505211235 88 228 0.0 0.0 0.00 0.00 0.00 44 1012.9
20260505210732 87 58 0.0 0.0 0.00 0.00 0.00 45 1013.0
20260505210228 88 329 0.0 0.0 0.00 0.00 0.00 46 1012.9
20260505205726 88 196 0.0 0.0 0.00 0.00 0.00 45 1012.9
20260505205224 90 180 0.0 0.0 0.00 0.00 0.00 43 1013.0
20260505204720 90 106 0.0 0.0 0.00 0.00 0.00 44 1012.8
20260505204218 89 162 0.0 0.0 0.00 0.00 0.00 44 1012.9
20260505203715 89 159 0.0 0.0 0.00 0.00 0.00 47 1012.9
20260505203212 88 188 0.0 0.0 0.00 0.00 0.00 46 1013.0
20260505202708 87 203 0.0 0.0 0.00 0.00 0.00 45 1013.0
20260505202204 88 164 0.0 0.0 0.00 0.00 0.00 46 1013.1
20260505201700 87 276 0.0 0.0 0.00 0.00 0.00 47 1013.1
20260505201159 87 297 1.0 2.0 0.00 0.00 0.00 45 1013.1
20260505200657 90 239 0.0 0.0 0.00 0.00 0.00 43 1013.2
20260505200153 90 170 0.0 0.0 0.00 0.00 0.00 40 1013.3
20260505195649 91 147 0.0 0.0 0.00 0.00 0.00 41 1013.2
20260505195146 90 144 0.0 0.0 0.00 0.00 0.00 44 1013.4
20260505194644 87 218 0.0 0.0 0.00 0.00 0.00 46 1013.4
20260505194139 88 219 0.0 0.0 0.00 0.00 0.00 46 1013.3
20260505193636 88 194 0.0 0.0 0.00 0.00 0.00 49 1013.5
20260505193133 89 155 0.0 0.0 0.00 0.00 0.00 47 1013.6
20260505192632 89 164 0.0 0.0 0.00 0.00 0.00 45 1013.4
20260505192129 90 204 0.0 0.0 0.00 0.00 0.00 44 1013.5
20260505191627 89 193 0.0 0.0 0.00 0.00 0.00 45 1013.7
20260505191125 87 204 0.0 0.0 0.00 0.00 0.00 50 1013.7
20260505190621 90 111 0.0 0.0 0.00 0.00 0.00 45 1013.7
20260505190115 89 185 0.0 0.0 0.00 0.00 0.00 45 1013.7
20260505185613 86 213 0.0 0.0 0.00 0.00 0.00 48 1013.9
20260505185109 88 281 0.0 0.0 0.00 0.00 0.00 47 1014.1
20260505184606 88 180 0.0 0.0 0.00 0.00 0.00 47 1014.0
20260505184102 88 177 0.0 0.0 0.00 0.00 0.00 47 1014.2
20260505183559 88 157 0.0 0.0 0.00 0.00 0.00 48 1014.0
20260505183057 88 171 0.0 0.0 0.00 0.00 0.00 48 1014.0
20260505182553 89 186 0.0 0.0 0.00 0.00 0.00 47 1014.2
20260505182050 89 61 0.0 1.0 0.00 0.00 0.00 49 1014.2
20260505181546 89 167 0.0 0.0 0.00 0.00 0.00 50 1014.2
20260505181044 89 174 0.0 0.0 0.00 0.00 0.00 50 1014.4
20260505180539 88 138 0.0 0.0 0.00 0.00 0.00 49 1014.4
20260505180038 89 166 0.0 0.0 0.00 0.00 0.00 50 1014.4
20260505175537 87 182 0.0 0.0 0.00 0.00 0.00 50 1014.4
20260505175035 86 222 0.0 0.0 0.00 0.00 0.00 51 1014.6
20260505174532 84 117 0.0 0.0 0.00 0.00 0.00 53 1014.8
20260505174027 84 162 0.0 0.0 0.00 0.00 0.00 54 1015.0
20260505173525 84 68 0.0 0.0 0.00 0.00 0.00 53 1014.8
20260505173021 85 156 0.0 0.0 0.00 0.00 0.00 56 1015.0
20260505172519 86 140 0.0 0.0 0.00 0.00 0.00 53 1014.8
20260505172015 87 74 0.0 0.0 0.00 0.00 0.00 54 1015.0
20260505171510 87 135 1.0 2.0 0.00 0.00 0.00 53 1015.1
20260505171008 87 151 0.0 0.0 0.00 0.00 0.00 52 1015.2
20260505170504 84 132 0.0 0.0 0.00 0.00 0.00 57 1015.2
20260505170000 85 347 0.0 0.0 0.00 0.00 0.00 56 1015.4
20260505165456 84 182 0.0 0.0 0.00 0.00 0.00 55 1015.3
20260505164951 86 201 0.0 0.0 0.00 0.00 0.00 55 1015.1
20260505164448 87 53 0.0 0.0 0.00 0.00 0.00 52 1015.1
20260505163946 87 179 0.0 0.0 0.00 0.00 0.00 54 1015.2
20260505163444 87 157 0.0 0.0 0.00 0.00 0.00 53 1015.3
20260505162944 87 191 0.0 0.0 0.00 0.00 0.00 54 1015.2
20260505162439 86 133 0.0 0.0 0.00 0.00 0.00 56 1015.2
20260505161936 86 192 1.0 2.0 0.00 0.00 0.00 53 1015.2
20260505161432 87 81 0.0 0.0 0.00 0.00 0.00 54 1015.4
20260505160930 86 190 0.0 0.0 0.00 0.00 0.00 56 1015.3
20260505160428 85 136 0.0 0.0 0.00 0.00 0.00 58 1015.4
20260505152904 84 108 0.0 0.0 0.00 0.00 0.00 59 1015.3
20260505152403 85 153 0.0 0.0 0.00 0.00 0.00 59 1015.3
20260505151901 84 130 0.0 0.0 0.00 0.00 0.00 62 1015.4
20260505151358 84 166 0.0 0.0 0.00 0.00 0.00 62 1015.1
20260505150855 84 112 0.0 0.0 0.00 0.00 0.00 62 1015.2
20260505150352 83 136 0.0 0.0 0.00 0.00 0.00 62 1015.0
20260505140311 79 149 0.0 0.0 0.00 0.00 0.00 73 1015.1
20260505130234 73 169 0.0 0.0 0.00 0.00 0.00 82 1014.9
20260505124724 70 141 1.0 2.0 0.00 0.00 0.00 87 1015.0
20260505124221 70 106 0.0 0.0 0.00 0.00 0.00 89 1014.9
20260505123717 69 142 0.0 0.0 0.00 0.00 0.00 90 1014.9
20260505123214 68 131 0.0 0.0 0.00 0.00 0.00 90 1014.8
20260505122711 68 159 0.0 0.0 0.00 0.00 0.00 91 1014.9
20260505122208 67 86 0.0 0.0 0.00 0.00 0.00 92 1014.8
20260505121704 67 153 0.0 0.0 0.00 0.00 0.00 93 1014.9
20260505121201 66 153 0.0 0.0 0.00 0.00 0.00 93 1014.7
20260505120657 66 153 0.0 0.0 0.00 0.00 0.00 94 1014.8
20260505120154 66 151 0.0 0.0 0.00 0.00 0.00 95 1015.1
20260505115647 65 159 0.0 0.0 0.00 0.00 0.00 95 1014.8
20260505115145 65 152 0.0 0.0 0.00 0.00 0.00 95 1015.1
20260505114642 64 141 0.0 0.0 0.00 0.00 0.00 96 1015.0
20260505114138 64 158 0.0 0.0 0.00 0.00 0.00 96 1014.9
20260505113635 64 170 0.0 0.0 0.00 0.00 0.00 96 1014.9
20260505113131 63 153 0.0 0.0 0.00 0.00 0.00 96 1014.5
20260505112627 62 153 0.0 0.0 0.00 0.00 0.00 96 1014.4
20260505112126 62 153 0.0 0.0 0.00 0.00 0.00 96 1014.3
20260505111619 62 152 0.0 0.0 0.00 0.00 0.00 96 1014.1
20260505111116 61 162 0.0 0.0 0.00 0.00 0.00 96 1014.2
20260505110612 62 160 0.0 0.0 0.00 0.00 0.00 96 1013.9
20260505110109 61 161 0.0 0.0 0.00 0.00 0.00 96 1014.0
20260505102045 61 161 0.0 0.0 0.00 0.00 0.00 96 1013.8
20260505101543 61 143 0.0 0.0 0.00 0.00 0.00 96 1013.6
20260505101039 61 161 0.0 0.0 0.00 0.00 0.00 96 1013.6
20260505100536 61 162 0.0 0.0 0.00 0.00 0.00 95 1013.5
20260505100033 61 169 0.0 0.0 0.00 0.00 0.00 95 1013.5
20260505095529 62 161 0.0 0.0 0.00 0.00 0.00 95 1013.7
20260505095026 62 161 0.0 0.0 0.00 0.00 0.00 95 1013.5
20260505094522 62 160 0.0 0.0 0.00 0.00 0.00 95 1013.5
20260505094018 62 161 0.0 0.0 0.00 0.00 0.00 95 1013.7
20260505093515 62 161 0.0 0.0 0.00 0.00 0.00 95 1013.8
20260505093013 62 153 0.0 0.0 0.00 0.00 0.00 95 1013.8
20260505092510 62 161 0.0 0.0 0.00 0.00 0.00 95 1013.7
20260505092008 62 168 0.0 0.0 0.00 0.00 0.00 95 1013.6
20260505091505 62 167 0.0 0.0 0.00 0.00 0.00 95 1013.5
20260505091003 62 161 0.0 0.0 0.00 0.00 0.00 95 1013.6
20260505090500 62 161 0.0 0.0 0.00 0.00 0.00 95 1013.3
20260505085958 62 172 0.0 0.0 0.00 0.00 0.00 95 1013.6
20260505085455 62 161 0.0 0.0 0.00 0.00 0.00 95 1013.6
20260505084954 62 161 0.0 0.0 0.00 0.00 0.00 95 1013.4
20260505084452 62 162 0.0 0.0 0.00 0.00 0.00 95 1013.3
20260505083949 62 161 0.0 0.0 0.00 0.00 0.00 95 1013.5
20260505083446 62 162 0.0 0.0 0.00 0.00 0.00 94 1013.3
20260505082942 63 161 0.0 0.0 0.00 0.00 0.00 94 1013.1
20260505082438 63 161 0.0 0.0 0.00 0.00 0.00 95 1013.2
20260505081936 62 145 0.0 0.0 0.00 0.00 0.00 94 1013.4
20260505081432 63 161 0.0 0.0 0.00 0.00 0.00 94 1013.3
20260505080928 63 155 0.0 0.0 0.00 0.00 0.00 94 1013.2
20260505080425 63 132 0.0 0.0 0.00 0.00 0.00 94 1013.2
20260505075920 64 145 0.0 0.0 0.00 0.00 0.00 94 1013.1
20260505075417 64 161 0.0 0.0 0.00 0.00 0.00 94 1013.2
20260505074915 64 169 0.0 0.0 0.00 0.00 0.00 94 1013.4
20260505074412 63 151 0.0 0.0 0.00 0.00 0.00 93 1013.1
20260505073909 63 151 0.0 0.0 0.00 0.00 0.00 93 1013.4
20260505073407 63 151 0.0 0.0 0.00 0.00 0.00 93 1013.4
20260505072904 63 151 0.0 0.0 0.00 0.00 0.00 93 1013.4
20260505072400 64 151 0.0 0.0 0.00 0.00 0.00 93 1013.3
20260505071856 64 157 0.0 0.0 0.00 0.00 0.00 93 1013.3
20260505071352 64 149 0.0 0.0 0.00 0.00 0.00 92 1013.7
20260505070851 64 151 0.0 0.0 0.00 0.00 0.00 92 1013.4
20260505070347 64 150 0.0 0.0 0.00 0.00 0.00 92 1013.7
20260505065842 64 152 0.0 0.0 0.00 0.00 0.00 92 1013.5
20260505065339 64 151 0.0 0.0 0.00 0.00 0.00 92 1013.4
20260505064836 64 151 0.0 0.0 0.00 0.00 0.00 91 1013.5
20260505064333 65 150 0.0 0.0 0.00 0.00 0.00 91 1013.6
20260505063832 65 149 0.0 0.0 0.00 0.00 0.00 91 1013.8
20260505063327 65 150 0.0 0.0 0.00 0.00 0.00 90 1013.6
20260505062824 65 149 0.0 0.0 0.00 0.00 0.00 90 1013.8
20260505062321 65 149 0.0 0.0 0.00 0.00 0.00 90 1014.0
20260505061818 65 149 0.0 0.0 0.00 0.00 0.00 89 1014.2
20260505061316 66 149 0.0 0.0 0.00 0.00 0.00 89 1014.1
20260505060813 66 147 0.0 0.0 0.00 0.00 0.00 88 1014.1
20260505060310 66 149 0.0 0.0 0.00 0.00 0.00 87 1014.2
20260505055806 66 148 0.0 0.0 0.00 0.00 0.00 86 1014.2
20260505055303 67 148 0.0 0.0 0.00 0.00 0.00 86 1014.4
20260505054800 68 154 0.0 0.0 0.00 0.00 0.00 85 1014.4
20260505054257 68 150 0.0 0.0 0.00 0.00 0.00 85 1014.4
20260505053755 68 142 0.0 0.0 0.00 0.00 0.00 85 1014.4
20260505053252 68 156 0.0 0.0 0.00 0.00 0.00 84 1014.8
20260505052749 68 150 0.0 0.0 0.00 0.00 0.00 84 1014.5
20260505052246 68 154 0.0 0.0 0.00 0.00 0.00 84 1014.6
20260505051742 68 137 0.0 0.0 0.00 0.00 0.00 84 1014.8
20260505051240 69 154 0.0 0.0 0.00 0.00 0.00 83 1014.5
20260505050738 69 166 0.0 0.0 0.00 0.00 0.00 82 1014.8
20260505050237 69 146 0.0 0.0 0.00 0.00 0.00 82 1014.8
20260505041706 70 150 0.0 0.0 0.00 0.00 0.00 79 1015.1
20260505041203 70 153 0.0 0.0 0.00 0.00 0.00 79 1015.3
20260505040701 70 156 0.0 0.0 0.00 0.00 0.00 79 1015.0
20260505040158 70 164 0.0 0.0 0.00 0.00 0.00 79 1015.1
20260505035654 70 147 0.0 0.0 0.00 0.00 0.00 79 1015.0
20260505035150 70 147 0.0 0.0 0.00 0.00 0.00 79 1015.4
20260505034647 70 157 0.0 0.0 0.00 0.00 0.00 78 1015.2
20260505034144 70 146 0.0 0.0 0.00 0.00 0.00 78 1015.2
20260505033640 70 152 0.0 0.0 0.00 0.00 0.00 78 1015.2
20260505033139 71 172 0.0 0.0 0.00 0.00 0.00 77 1015.1
20260505032637 71 150 0.0 0.0 0.00 0.00 0.00 77 1015.3
20260505032133 71 139 0.0 0.0 0.00 0.00 0.00 77 1015.2